EW2082 Weather Reports


Display with metric or nautical units.
time (UTC)temp
F
wind
direction
speed
MPH
gust
MPH
rain 1hr
in
rain 24hr
in
rain mn
in
humidity
%
barometer
mb
20260904174004 79 172 0.0 1.0 0.00 0.00 0.00 62 1013.8
20260904173004 79 186 0.0 3.0 0.00 0.00 0.00 62 1013.7
20260904172004 79 255 0.0 0.0 0.00 0.00 0.00 63 1013.6
20260904171004 78 211 0.0 3.0 0.00 0.00 0.00 65 1013.6
20260904170006 77 178 0.0 3.0 0.00 0.00 0.00 65 1013.5
20260904165004 76 193 0.0 2.0 0.00 0.00 0.00 68 1013.3
20260904164004 76 156 0.0 4.0 0.00 0.00 0.00 68 1013.3
20260904163004 75 349 0.0 1.0 0.00 0.00 0.00 68 1013.1
20260904162004 76 113 0.0 1.0 0.00 0.00 0.00 66 1013.0
20260904161004 77 109 0.0 1.0 0.00 0.00 0.00 67 1013.0
20260904160004 76 285 0.0 0.0 0.00 0.00 0.00 69 1013.0
20260904155004 75 155 0.0 0.0 0.00 0.00 0.00 71 1012.9
20260904154004 75 101 0.0 0.0 0.00 0.00 0.00 72 1012.9
20260904153004 74 123 0.0 1.0 0.00 0.00 0.00 76 1012.9
20260904152004 72 92 0.0 1.0 0.00 0.00 0.00 81 1013.0
20260904151004 69 150 0.0 1.0 0.00 0.00 0.00 86 1012.9
20260904150004 66 25 0.0 1.0 0.00 0.00 0.00 91 1012.8
20260904144005 64 235 0.0 0.0 0.00 0.00 0.00 92 1012.8
20260904142004 63 235 0.0 0.0 0.00 0.00 0.00 92 1012.4
20260904141005 63 235 0.0 0.0 0.00 0.00 0.00 92 1012.3
20260904140005 62 235 0.0 0.0 0.00 0.00 0.00 93 1012.2
20260904135004 62 235 0.0 0.0 0.00 0.00 0.00 93 1012.1
20260904134004 62 235 0.0 0.0 0.00 0.00 0.00 92 1012.1
20260904133005 62 235 0.0 0.0 0.00 0.00 0.00 92 1012.1
20260904132004 61 235 0.0 0.0 0.00 0.00 0.00 92 1012.1
20260904131004 61 235 0.0 0.0 0.00 0.00 0.00 92 1012.1
20260904125004 62 235 0.0 0.0 0.00 0.00 0.00 92 1011.9
20260904124004 62 235 0.0 0.0 0.00 0.00 0.00 92 1011.9
20260904123005 62 235 0.0 0.0 0.00 0.00 0.00 92 1011.8
20260904121004 62 235 0.0 0.0 0.00 0.00 0.00 92 1011.7
20260904120005 61 235 0.0 0.0 0.00 0.00 0.00 92 1011.8
20260904115004 61 235 0.0 0.0 0.00 0.00 0.00 92 1011.8
20260904114004 62 235 0.0 0.0 0.00 0.00 0.00 92 1011.8
20260904113004 62 235 0.0 0.0 0.00 0.00 0.00 92 1011.8
20260904112004 62 235 0.0 0.0 0.00 0.00 0.00 91 1011.8
20260904110005 62 235 0.0 0.0 0.00 0.00 0.00 91 1011.8
20260904105004 62 235 0.0 0.0 0.00 0.00 0.00 91 1011.9
20260904104004 62 235 0.0 0.0 0.00 0.00 0.00 91 1011.9
20260904101004 62 235 0.0 0.0 0.00 0.00 0.00 90 1011.7
20260904100005 62 235 0.0 0.0 0.00 0.00 0.00 90 1011.8
20260904095004 62 235 0.0 0.0 0.00 0.00 0.00 90 1011.8
20260904094004 63 235 0.0 0.0 0.00 0.00 0.00 90 1011.7
20260904093004 63 235 0.0 0.0 0.00 0.00 0.00 90 1011.8
20260904092004 62 235 0.0 0.0 0.00 0.00 0.00 90 1011.8
20260904090004 63 235 0.0 0.0 0.00 0.00 0.00 89 1011.8
20260904085004 63 235 0.0 0.0 0.00 0.00 0.00 89 1011.8
20260904084004 63 235 0.0 0.0 0.00 0.00 0.00 89 1012.0
20260904082003 64 235 0.0 0.0 0.00 0.00 0.00 89 1012.0
20260904081006 64 235 0.0 0.0 0.00 0.00 0.00 89 1012.0
20260904080005 64 235 0.0 0.0 0.00 0.00 0.00 89 1011.9
20260904075004 64 235 0.0 0.0 0.00 0.00 0.00 89 1012.0
20260904074005 64 235 0.0 0.0 0.00 0.00 0.00 89 1011.8
20260904073004 64 235 0.0 0.0 0.00 0.00 0.00 88 1012.0
20260904072004 64 235 0.0 0.0 0.00 0.00 0.00 88 1012.0
20260904071004 64 235 0.0 0.0 0.00 0.00 0.00 88 1012.0
20260904070007 65 235 0.0 0.0 0.00 0.00 0.00 88 1012.0
20260904065006 64 235 0.0 0.0 0.00 0.00 0.00 88 1012.0
20260904064004 65 235 0.0 0.0 0.00 0.00 0.00 88 1011.9
20260904063005 65 235 0.0 0.0 0.00 0.00 0.00 88 1012.0
20260904061004 66 235 0.0 0.0 0.00 0.00 0.00 87 1011.7
20260904060005 66 235 0.0 0.0 0.00 0.00 0.00 87 1011.7
20260904055004 66 235 0.0 0.0 0.00 0.00 0.00 87 1011.7
20260904054004 67 235 0.0 0.0 0.00 0.00 0.00 86 1011.7
20260904052006 67 235 0.0 0.0 0.00 0.00 0.00 86 1011.8
20260904044004 68 223 0.0 0.0 0.00 0.00 0.00 85 1011.9
20260904043005 68 198 0.0 0.0 0.00 0.00 0.00 84 1011.8
20260904042004 68 263 0.0 0.0 0.00 0.00 0.00 84 1011.7
20260904041004 68 193 0.0 1.0 0.00 0.00 0.00 83 1011.6
20260904040005 68 76 0.0 1.0 0.00 0.00 0.00 82 1011.6
20260904035005 69 320 0.0 1.0 0.00 0.00 0.00 82 1011.5
20260904034004 69 312 0.0 0.0 0.00 0.00 0.00 82 1011.4
20260904033005 69 49 0.0 1.0 0.00 0.00 0.00 83 1011.3
20260904032005 69 283 0.0 0.0 0.00 0.00 0.00 82 1011.2
20260904031004 69 17 0.0 0.0 0.00 0.00 0.00 82 1011.0
20260904030005 70 7 0.0 0.0 0.00 0.00 0.00 82 1010.8
20260904025004 70 39 0.0 1.0 0.00 0.00 0.00 81 1010.7
20260904024004 70 167 0.0 1.0 0.00 0.00 0.00 80 1010.7
20260904023004 71 114 0.0 1.0 0.00 0.00 0.00 79 1010.8
20260904022005 71 24 0.0 0.0 0.00 0.00 0.00 78 1010.8
20260904021004 72 350 0.0 0.0 0.00 0.00 0.00 74 1010.8
20260904020004 72 31 0.0 1.0 0.00 0.00 0.00 70 1010.8
20260904015004 73 65 0.0 3.0 0.00 0.00 0.00 68 1010.8
20260904014005 74 27 0.0 3.0 0.00 0.00 0.00 70 1010.9
20260904013004 75 6 0.0 4.0 0.00 0.00 0.00 68 1010.9
20260904012005 76 18 0.0 4.0 0.00 0.00 0.00 65 1010.9
20260904011004 77 18 0.0 3.0 0.00 0.00 0.00 63 1010.8
20260904005005 79 316 0.0 1.0 0.00 0.00 0.00 61 1010.9
20260904003004 79 45 2.0 5.0 0.00 0.00 0.00 61 1010.8
20260904002004 80 60 0.0 6.0 0.00 0.00 0.00 61 1010.8
20260904001004 80 28 0.0 4.0 0.00 0.00 0.00 60 1010.8
20260903235004 81 1 0.0 4.0 0.00 0.00 0.00 60 1011.0
20260903233004 82 350 0.0 2.0 0.00 0.00 0.00 55 1010.9
20260903232004 83 53 0.0 1.0 0.00 0.00 0.00 56 1011.1
20260903231004 83 253 0.0 0.0 0.00 0.00 0.00 56 1011.2
20260903230005 82 58 0.0 4.0 0.00 0.00 0.00 57 1011.3
20260903225004 83 116 0.0 4.0 0.00 0.00 0.00 57 1011.3
20260903223004 85 290 0.0 3.0 0.00 0.00 0.00 54 1011.5
20260903222004 85 176 0.0 0.0 0.00 0.00 0.00 52 1011.7
20260903221004 85 125 0.0 1.0 0.00 0.00 0.00 52 1011.7
20260903220005 84 109 0.0 2.0 0.00 0.00 0.00 53 1011.8
20260903215004 84 122 0.0 0.0 0.00 0.00 0.00 54 1011.9
20260903213005 84 105 0.0 2.0 0.00 0.00 0.00 54 1012.0
20260903212005 83 196 0.0 1.0 0.00 0.00 0.00 53 1012.2
20260903211004 83 254 0.0 4.0 0.00 0.00 0.00 56 1012.3
20260903204004 83 203 2.0 5.0 0.00 0.00 0.00 56 1012.7
20260903203004 83 68 0.0 2.0 0.00 0.00 0.00 58 1012.7
20260903202004 83 15 0.0 5.0 0.00 0.00 0.00 57 1012.9
20260903201004 82 326 0.0 3.0 0.00 0.00 0.00 58 1012.9
20260903200005 83 195 0.0 2.0 0.00 0.00 0.00 58 1013.0